Theta_e
343 342 345 346 342 339 339 340 339 339 340 342 341 342 346 348 349 349 349 349 349 347 346 346 345 344 342 339 335 330 331 334 333 336 340 342 338 331 330 333 333 334 335 335 333 331 330 329 330 330 330 331 332 333 334 335 335 336 336 338 340 340 340 339 338 338 339 339 337 336 334 331 328 327 327 326 325 321 317 316 316 316 316 316 316
342 342 342 341 339 338 339 338 338 339 341 341 341 344 347 349 350 349 349 349 349 348 348 348 346 345 345 345 344 340 337 336 335 337 339 340 338 331 330 331 331 332 332 332 332 331 331 331 331 331 332 332 333 333 335 335 336 337 337 338 339 338 338 338 337 336 336 334 332 329 325 322 320 319 321 323 322 318 316 316 316 316 316 316 317
342 342 342 340 338 338 338 339 340 339 341 341 342 346 349 349 349 349 350 350 349 349 349 349 348 347 347 347 346 345 343 343 342 342 341 340 337 333 333 333 332 333 332 332 332 331 331 331 331 331 332 332 333 334 335 336 337 336 336 337 337 337 336 335 333 332 330 327 324 321 317 316 316 317 319 320 318 317 317 317 317 317 317 317 318
342 342 341 340 339 339 339 341 341 339 340 342 341 344 346 345 343 346 349 350 350 350 349 349 349 349 348 348 348 347 346 347 345 343 342 339 336 335 335 335 335 334 333 333 333 333 333 333 333 333 333 334 334 334 334 335 334 334 334 335 335 334 333 331 329 327 325 322 318 316 315 316 317 317 318 318 318 318 318 318 318 318 318 319 319
342 341 340 339 339 340 340 340 341 339 339 339 338 341 346 345 344 346 350 350 349 350 349 348 349 350 349 348 349 349 348 348 348 346 345 343 339 337 336 336 336 335 334 334 334 335 334 334 334 334 334 334 334 334 334 334 333 333 333 332 332 331 329 326 325 324 320 318 316 316 316 317 317 317 318 318 318 318 319 319 319 319 319 319 319
341 340 340 339 339 340 340 340 340 340 338 338 341 344 346 348 348 349 350 350 349 350 350 348 349 350 349 349 349 349 350 349 349 348 347 346 343 341 340 339 340 339 339 339 338 337 337 336 335 334 334 334 335 334 333 333 333 333 332 330 328 327 325 323 322 320 318 317 316 317 317 317 318 318 318 318 319 319 319 319 319 319 319 320 320
342 340 340 340 341 341 341 341 340 341 340 340 344 345 344 347 350 350 350 350 349 349 350 350 350 350 350 350 349 350 350 349 349 348 347 346 345 344 344 343 343 342 343 344 343 341 339 338 338 337 336 336 336 335 333 333 333 331 329 327 325 324 322 321 320 318 317 317 317 317 317 318 318 318 319 319 319 319 319 319 319 320 319 320 320
343 342 341 342 342 342 342 342 341 343 342 341 345 346 345 345 347 350 351 349 349 349 350 351 350 350 350 350 349 349 350 349 349 348 347 347 347 346 345 345 344 342 342 343 343 342 337 332 333 335 334 334 333 333 332 331 329 328 325 323 322 321 320 319 319 318 318 318 318 318 319 319 319 320 320 320 320 320 320 320 320 320 320 320 320
343 343 343 342 342 343 343 342 342 344 343 342 345 346 347 346 344 348 351 350 349 349 350 351 350 350 350 349 349 349 349 350 349 348 348 348 347 347 347 345 344 343 342 341 340 341 337 330 327 327 328 329 329 329 329 327 325 324 322 321 320 320 319 319 319 318 319 319 320 320 321 321 322 322 322 322 323 323 323 323 323 323 323 323 322
344 344 344 343 343 344 343 342 342 343 343 343 343 343 346 350 347 345 349 351 351 350 350 351 351 349 348 348 349 350 350 349 349 349 349 349 347 347 347 344 344 342 339 340 340 339 338 332 327 326 325 325 327 326 325 324 322 321 320 320 319 319 319 319 320 320 321 321 322 323 324 325 325 326 326 327 327 327 328 328 328 328 327 327 327
344 345 345 344 343 344 343 343 343 342 341 341 342 341 343 347 348 345 345 349 351 351 350 351 351 349 347 347 348 349 350 349 349 349 349 348 347 347 347 345 344 342 339 341 344 341 337 333 331 335 331 323 322 323 322 321 321 320 321 320 321 320 321 321 322 323 324 325 327 328 329 329 329 330 331 332 332 332 333 333 333 333 333 333 332
345 345 345 345 344 343 343 343 342 341 340 339 343 345 342 342 345 345 345 347 348 350 350 350 351 349 348 347 347 348 348 349 349 347 347 347 345 345 345 344 344 344 344 344 346 345 341 335 334 340 339 328 322 321 321 322 321 321 322 322 322 323 324 325 326 328 329 331 332 333 333 333 334 335 337 338 339 340 340 340 341 340 340 340 339
345 345 344 344 344 343 343 342 341 340 339 340 344 345 342 342 343 343 346 350 350 350 349 350 350 348 347 346 345 346 346 347 346 345 344 344 343 344 344 344 344 344 346 344 344 346 346 341 340 344 341 335 333 329 323 324 324 324 324 325 326 327 329 331 332 334 335 336 337 337 338 339 340 341 342 343 344 345 345 345 345 345 345 344 344
343 343 343 344 344 343 343 341 340 340 339 341 342 343 343 343 344 345 348 350 352 350 348 349 349 345 347 347 345 345 345 345 344 342 342 342 342 343 342 344 344 344 346 346 345 346 347 346 346 346 340 338 343 338 330 329 328 327 328 329 330 331 333 335 336 338 339 340 341 342 342 343 343 344 345 345 346 346 346 346 345 345 345 346 346
342 341 342 344 344 342 342 341 340 340 341 342 342 343 343 343 345 349 350 350 350 349 346 347 348 346 346 347 345 345 345 343 343 342 342 342 342 342 342 343 343 345 346 346 347 346 347 347 345 342 338 338 342 341 338 337 334 332 331 331 333 334 335 338 340 341 343 343 343 344 344 344 344 345 345 346 346 346 346 346 347 348 349 349 350
342 341 342 343 342 341 341 341 340 340 342 342 342 343 344 344 346 348 350 351 349 347 346 346 346 347 347 346 345 345 344 343 343 342 341 341 341 341 341 343 343 345 346 346 346 346 347 348 344 340 339 339 340 340 341 340 336 334 333 333 335 336 339 340 342 343 343 344 344 343 343 343 344 345 346 347 347 348 349 350 351 352 353 353 353
343 342 342 342 342 341 341 340 339 340 343 342 342 344 344 346 346 345 348 351 348 346 345 345 344 345 346 346 346 346 345 344 343 342 342 340 341 341 341 343 343 345 346 345 345 346 347 347 344 341 341 341 341 341 340 340 337 336 336 337 339 340 341 342 343 344 344 344 344 344 344 344 344 346 347 349 351 352 353 354 354 354 354 354 354
343 342 342 342 341 341 342 341 340 340 342 341 343 345 345 346 346 346 348 349 347 346 345 345 345 342 344 347 347 347 347 347 345 343 343 341 341 341 342 343 343 344 346 345 346 346 346 346 345 344 343 341 341 341 340 340 339 340 340 340 341 342 342 343 343 344 344 344 343 342 342 342 344 347 350 352 353 354 355 355 355 354 352 348 344
344 342 343 342 342 342 342 343 342 341 342 341 342 345 346 347 346 345 347 345 344 347 345 344 345 344 345 347 347 347 348 348 347 345 344 343 343 342 342 342 342 343 344 344 345 344 345 347 347 347 345 340 339 340 340 340 340 340 341 341 341 341 341 341 341 341 341 340 339 339 340 342 346 350 352 353 354 354 354 355 353 349 341 334 330
344 343 342 343 343 344 343 344 344 343 343 342 342 344 345 345 344 343 344 341 342 345 345 344 345 345 346 347 347 347 348 348 348 347 347 345 343 343 343 343 342 343 343 343 342 342 344 345 345 347 347 342 340 341 340 340 341 341 341 340 339 339 339 337 336 336 336 336 337 339 342 345 348 351 353 353 352 353 353 352 347 337 329 325 324
343 343 343 343 343 344 343 344 345 344 344 344 343 343 344 343 343 342 341 340 341 343 344 344 345 345 345 347 348 348 348 349 347 347 348 346 344 344 343 344 343 343 343 343 342 342 344 345 346 347 348 344 341 341 341 341 341 340 338 337 336 336 336 334 333 334 335 338 341 344 346 348 350 352 352 350 351 351 350 344 335 327 324 323 322
343 343 342 343 343 343 344 344 345 345 344 345 345 343 342 342 342 342 340 339 340 341 343 345 345 345 345 346 347 348 349 348 347 346 347 347 346 344 343 344 344 343 344 344 343 344 345 346 347 348 348 345 341 341 341 339 336 334 332 331 332 332 333 333 334 337 341 344 347 348 349 350 351 350 349 350 350 346 340 333 327 324 323 322 321
345 344 342 343 343 343 344 343 344 344 344 344 344 344 345 344 342 342 340 338 338 340 343 344 344 345 345 344 345 347 348 348 348 347 347 348 347 345 344 344 344 344 344 344 345 345 346 347 348 348 346 342 341 338 334 332 330 328 328 328 330 331 332 333 334 339 344 347 347 347 347 347 347 347 349 348 343 335 330 328 326 324 322 321 321
346 345 343 343 343 343 344 343 343 343 344 343 342 345 349 347 344 342 341 339 338 338 341 343 345 345 345 344 344 346 347 348 348 347 348 349 348 347 345 344 344 344 344 345 345 345 347 349 349 349 344 339 336 330 332 338 332 326 328 328 329 331 331 334 335 338 343 345 345 344 343 344 345 348 348 341 332 328 328 327 324 322 322 321 321
345 345 345 345 343 343 343 343 344 343 343 344 342 344 347 346 343 343 342 339 338 337 338 343 347 346 346 346 345 345 346 347 347 347 348 349 349 348 346 345 345 344 344 344 345 346 348 348 348 345 338 335 332 326 335 347 337 325 327 329 330 330 331 334 335 336 338 341 342 342 342 345 348 349 343 332 327 326 326 325 323 322 321 321 322
345 345 347 348 345 342 342 343 344 344 343 343 343 343 344 343 343 344 343 340 338 337 337 343 347 347 347 346 345 345 346 346 347 347 348 349 348 347 348 347 344 343 343 342 343 346 348 348 348 342 333 330 332 327 332 342 336 324 327 334 335 330 329 332 333 334 336 337 338 340 344 348 349 347 338 329 326 325 324 323 322 322 321 322 322
346 343 344 345 344 343 342 341 343 344 344 343 343 343 343 343 344 344 344 342 340 337 336 341 346 347 347 346 346 346 347 347 347 347 348 349 348 348 349 349 347 345 342 341 343 343 345 348 348 343 335 330 333 331 329 337 336 325 328 339 340 331 328 331 331 332 334 334 337 341 346 349 349 346 338 329 325 324 324 323 322 322 322 322 323
347 343 342 342 343 342 342 342 342 343 344 343 343 343 342 344 345 344 344 344 342 340 337 338 344 348 348 347 347 347 348 348 347 349 350 350 350 349 348 349 349 347 344 343 343 342 343 347 348 345 338 332 336 336 336 341 337 327 332 340 338 331 328 329 330 331 332 333 337 342 347 348 348 346 339 330 325 324 323 323 322 322 322 322 324
346 345 343 341 342 342 342 344 343 342 344 344 343 343 342 343 345 345 345 345 344 342 340 338 342 347 349 348 347 348 349 348 347 350 351 350 349 348 348 349 348 349 349 347 345 345 346 348 350 350 341 333 340 345 346 346 334 327 334 337 334 332 328 328 329 329 331 334 338 343 347 348 347 347 341 332 327 324 323 323 322 321 322 323 323
346 346 344 342 342 341 341 343 343 342 343 343 343 343 343 343 344 345 345 346 345 344 342 340 342 346 348 349 348 348 349 348 347 350 351 349 349 348 348 347 345 348 351 350 350 348 346 348 350 351 345 339 345 351 353 350 336 328 331 331 331 330 326 327 329 328 330 333 339 344 346 346 347 346 343 335 330 327 324 323 322 322 322 323 323
341 342 342 343 343 341 340 341 342 342 342 343 343 342 343 343 344 345 347 345 345 346 344 342 344 346 344 345 346 347 349 350 349 351 351 350 350 350 349 347 343 344 345 348 352 348 347 351 350 349 349 345 346 350 351 350 340 328 328 329 328 327 328 330 327 327 330 331 336 344 345 345 345 346 344 338 332 329 326 323 322 322 322 323 323
337 338 339 342 344 343 343 343 344 345 344 343 345 343 342 343 344 348 351 347 344 346 347 346 348 348 342 338 339 340 344 348 349 350 350 349 350 350 349 348 344 342 338 342 352 353 351 350 347 349 350 345 347 347 342 348 346 330 327 329 325 329 339 342 335 329 330 330 333 340 344 345 345 345 344 340 335 331 328 325 323 322 322 323 323
334 335 335 338 341 343 346 348 349 350 347 343 345 345 343 343 343 344 348 346 344 346 347 348 350 348 342 338 336 335 337 342 345 348 349 349 349 349 350 349 348 348 343 341 350 355 353 349 346 348 346 339 345 344 334 343 346 334 329 328 331 340 344 346 347 339 331 331 332 336 343 345 345 345 345 341 337 334 330 327 324 322 323 322 323
330 331 332 335 336 338 345 347 348 350 348 344 345 347 345 345 344 344 346 344 343 345 345 347 349 347 343 340 338 337 337 336 338 344 348 348 349 349 349 349 350 351 348 341 344 351 355 353 347 348 347 340 341 341 333 335 337 332 330 328 337 349 343 341 352 348 333 331 332 333 341 345 345 345 345 343 340 337 333 329 325 323 323 322 322
329 328 329 332 332 333 340 343 342 344 346 343 344 347 346 345 344 346 349 347 344 343 343 343 345 346 345 342 340 342 344 342 338 341 346 348 349 349 349 350 350 351 350 343 338 343 351 353 347 347 350 342 336 336 332 332 333 332 334 332 336 344 338 339 352 352 339 332 331 333 339 344 345 344 344 344 342 340 337 332 327 325 323 322 322
333 329 327 328 330 329 334 339 339 340 343 342 343 344 343 343 342 342 343 344 344 344 343 343 345 345 345 343 343 345 348 348 342 341 344 346 347 348 348 347 344 344 347 343 335 335 341 345 343 341 341 335 332 333 332 332 334 332 333 334 334 336 334 337 350 354 345 334 329 332 338 343 345 344 344 345 344 342 340 335 330 326 324 323 322
337 335 329 326 328 328 329 333 336 338 340 340 341 341 340 338 335 334 335 336 337 341 342 342 344 343 343 343 343 345 348 348 344 345 347 345 342 343 345 346 344 342 342 338 334 335 335 337 339 337 335 335 334 332 331 332 336 337 337 337 336 334 331 334 346 352 349 341 332 330 334 340 343 343 343 344 345 344 343 339 333 328 325 323 322
338 340 335 328 326 328 328 329 331 335 339 339 338 337 337 338 335 333 336 336 332 333 336 338 341 342 341 341 342 344 345 345 345 347 348 343 339 339 339 341 342 341 337 334 332 334 335 334 336 339 343 346 342 336 333 330 331 336 340 343 346 346 341 337 338 345 351 350 342 333 333 336 340 342 343 344 344 344 344 343 338 331 327 324 323
337 341 341 334 328 326 327 327 328 331 336 338 337 333 332 336 336 333 337 340 337 335 334 336 341 345 345 343 341 341 341 341 342 344 344 340 337 336 333 332 335 334 333 337 338 338 339 340 342 347 352 353 349 342 337 330 327 332 340 347 352 352 349 343 338 341 348 348 343 342 341 338 338 340 342 344 345 344 345 344 342 337 330 325 323
338 340 343 341 335 329 328 328 327 328 330 333 335 331 327 329 331 329 330 335 339 341 339 338 340 345 348 348 346 345 342 339 338 340 342 341 339 336 333 332 332 332 333 340 343 342 343 345 348 350 351 349 345 342 340 339 339 344 350 353 352 349 349 349 346 345 345 342 344 349 349 344 339 338 339 342 343 344 345 345 345 341 334 326 323
343 342 342 343 342 338 331 328 328 328 328 329 328 328 326 326 327 328 327 326 331 337 339 339 342 345 347 348 349 349 345 338 336 336 338 340 339 338 336 333 333 333 334 337 338 337 338 341 345 348 349 350 348 347 350 352 352 352 351 350 350 349 351 352 350 347 344 342 346 350 351 349 344 339 341 344 343 343 344 345 345 344 339 329 324
345 345 344 343 344 344 338 331 328 328 328 328 326 326 326 325 325 327 327 326 326 329 330 332 337 342 345 346 348 348 342 335 335 336 335 336 336 337 336 334 334 335 335 335 336 336 336 340 345 349 351 352 351 348 349 351 352 352 351 350 351 352 353 352 351 349 345 341 343 344 345 346 341 336 340 345 346 346 345 345 346 346 343 334 325
345 345 346 345 344 346 345 339 333 329 328 327 327 326 326 326 326 326 326 325 325 326 325 326 328 334 340 343 346 346 340 333 333 336 335 335 335 335 335 335 335 334 335 335 335 336 338 341 347 351 352 353 351 346 343 345 348 352 353 351 347 346 349 352 353 354 349 343 342 340 338 340 338 334 336 341 345 346 344 345 347 347 345 338 327
346 345 346 346 345 346 347 347 343 337 331 327 327 327 326 326 326 326 326 326 326 327 327 326 325 327 331 336 341 346 345 338 333 333 335 335 334 334 334 334 335 335 335 335 335 335 337 340 345 349 349 350 349 345 342 343 344 348 349 347 341 340 346 349 350 353 351 346 342 340 337 338 336 334 335 337 339 341 342 344 347 347 346 340 330
346 346 346 346 347 346 346 347 348 346 341 333 327 325 326 327 326 326 326 326 328 329 329 328 328 326 325 328 332 337 344 344 337 331 333 335 335 335 335 334 335 335 334 334 334 335 335 336 340 343 343 341 338 336 336 336 334 336 338 338 339 340 344 347 347 348 349 346 344 341 337 337 340 343 344 344 341 338 339 343 346 347 347 343 333
346 346 347 347 346 347 347 347 347 348 348 344 336 328 325 325 326 326 326 326 327 329 329 329 329 328 326 325 325 326 332 338 336 331 331 333 334 335 335 335 335 334 334 334 334 334 335 335 336 337 336 335 332 329 331 332 332 333 333 334 338 341 345 346 344 341 341 341 342 342 336 336 345 349 349 349 347 340 336 340 345 347 347 345 337
349 347 347 347 347 347 347 348 348 348 349 349 346 340 333 329 327 326 326 326 326 327 327 326 327 327 325 325 325 324 325 327 328 329 330 332 333 334 335 335 335 335 335 335 334 334 335 335 336 336 335 333 332 331 332 333 334 334 334 334 337 339 341 341 338 336 339 341 342 342 339 339 346 350 349 351 350 345 339 338 343 347 347 345 339
353 352 349 347 348 348 348 348 348 349 350 351 351 350 346 342 339 336 332 330 328 326 326 325 325 325 324 324 324 324 324 324 325 327 330 331 332 333 334 335 335 336 336 336 335 334 335 336 335 335 335 335 334 333 333 335 335 334 335 334 335 340 344 344 342 342 347 349 347 345 343 343 346 350 351 351 350 347 344 339 339 344 346 345 341
353 354 352 350 348 348 349 348 349 349 350 351 352 353 352 351 350 348 344 340 335 330 327 326 326 325 324 324 324 324 324 324 325 327 329 330 331 332 333 333 334 335 337 339 338 335 334 336 336 335 334 334 335 334 332 334 333 333 336 334 334 343 351 353 352 351 351 350 349 349 347 345 347 350 351 351 348 347 346 341 338 343 346 345 341
352 353 354 354 352 351 350 350 350 350 351 352 352 353 354 354 354 353 352 349 345 339 335 332 330 328 325 324 324 324 325 325 325 327 329 330 331 331 332 333 333 333 335 339 342 341 338 334 333 335 335 333 334 334 332 333 333 333 335 334 333 343 351 353 354 354 353 349 348 350 348 347 349 351 350 351 350 347 346 344 340 342 346 345 342
354 354 355 356 355 355 354 353 352 352 352 353 354 354 354 355 355 354 354 354 352 349 345 340 336 333 330 326 325 324 325 325 326 328 330 330 331 331 332 333 333 332 335 339 342 345 347 343 334 332 334 333 334 334 333 333 334 334 335 334 333 339 347 350 352 353 352 349 348 350 349 348 351 352 351 352 352 349 348 346 344 344 345 346 343
Wind_Speed
10 10 11 10 10 9 9 9 9 10 10 9 9 9 8 8 8 8 8 8 8 10 10 10 10 10 10 10 10 10 10 9 9 9 7 6 5 5 5 5 5 5 5 5 4 4 4 4 4 4 5 5 5 6 6 6 5 5 5 5 6 6 7 7 7 7 7 7 8 9 9 9 9 8 8 8 8 8 7 6 6 6 5 5 5
9 10 10 10 10 10 10 9 10 10 10 9 9 8 7 7 7 7 7 7 7 8 9 9 8 9 9 9 9 9 10 10 9 9 7 7 6 6 7 7 7 7 6 6 5 5 5 5 5 4 5 5 5 5 5 4 4 4 5 5 6 6 6 6 6 6 7 7 8 9 9 9 9 8 7 6 6 6 6 6 6 5 5 5 5
9 9 9 9 10 10 10 10 10 10 10 9 9 8 6 7 7 7 7 7 7 8 8 8 8 8 8 8 8 8 8 8 8 7 7 7 7 7 7 7 8 7 7 7 6 6 5 5 5 4 4 4 4 4 3 3 4 4 5 5 5 6 6 7 7 7 7 8 8 9 9 8 7 6 5 5 5 5 6 6 6 6 5 5 5
9 9 9 9 10 10 10 10 9 10 10 9 9 8 7 7 8 8 7 7 7 7 7 7 7 7 7 7 7 7 7 7 6 6 6 7 8 8 7 7 7 7 7 6 6 5 5 4 4 4 4 3 3 3 3 3 4 5 5 5 5 6 7 7 7 7 7 8 8 7 7 6 6 5 5 5 5 6 6 6 6 6 6 6 5
9 9 10 10 10 10 10 10 9 9 10 10 9 8 7 6 7 7 7 6 6 7 7 6 6 6 6 6 6 6 6 6 6 6 6 6 6 7 7 7 6 6 7 6 5 5 4 4 4 4 3 3 2 2 3 4 5 6 6 6 6 6 6 6 6 7 7 7 7 6 6 6 6 6 6 6 6 6 6 6 6 6 6 6 6
9 10 10 10 10 9 10 9 9 9 9 9 8 7 7 6 6 6 6 6 5 6 6 5 5 6 5 5 4 5 5 5 5 5 5 5 5 6 7 6 5 5 4 5 5 6 5 4 4 3 2 2 2 4 5 5 6 6 6 6 6 6 6 6 6 6 7 7 7 6 6 6 6 7 7 7 7 7 7 7 7 7 7 7 7
9 9 9 10 10 9 9 9 9 9 8 9 8 7 7 7 7 6 5 6 5 5 6 5 5 5 5 5 4 4 4 4 4 4 4 5 5 5 5 4 4 3 3 2 3 5 5 4 3 2 2 3 4 5 5 5 5 5 5 5 5 5 6 6 6 6 7 7 7 6 7 7 7 7 8 7 7 7 7 7 7 7 7 7 7
9 9 8 8 8 8 8 9 9 9 8 8 7 6 6 7 8 6 5 6 5 4 5 5 5 4 4 4 3 4 4 3 4 4 3 4 5 4 4 3 3 3 3 3 3 3 5 5 4 3 4 4 5 5 5 5 5 4 4 4 5 5 6 6 6 6 6 6 6 7 7 8 8 8 8 8 8 8 8 7 7 8 8 8 8
8 8 8 7 7 7 6 7 8 8 8 8 7 6 6 6 7 7 6 6 5 4 4 4 4 3 3 3 3 3 3 3 3 3 3 4 4 3 3 3 3 3 3 3 3 3 4 6 5 5 5 4 4 4 4 4 4 4 4 5 5 5 6 6 6 6 6 6 6 7 8 8 8 8 8 8 8 8 8 8 8 8 8 8 8
7 8 7 7 7 7 6 6 7 7 8 8 7 7 7 5 6 7 8 6 4 4 3 3 3 3 3 3 3 3 3 3 3 3 3 4 4 4 4 4 4 4 3 3 3 2 3 4 5 6 5 5 4 4 4 4 4 4 5 5 5 6 5 5 6 6 6 6 7 7 8 8 8 8 8 8 8 8 9 8 8 9 9 9 9
6 7 6 6 6 6 6 6 6 7 7 8 7 7 7 7 6 7 8 7 5 4 3 3 3 2 3 3 2 3 3 3 3 4 4 4 4 4 4 4 5 4 3 3 2 2 4 5 5 5 5 5 6 5 5 5 5 5 6 6 6 6 6 6 6 6 7 7 8 8 8 8 8 8 8 8 9 9 9 9 9 9 9 10 10
6 6 6 6 6 7 6 6 6 7 8 8 7 6 7 8 7 8 8 6 5 3 2 2 2 2 3 3 2 2 3 3 4 4 4 4 4 4 4 3 4 4 3 3 3 3 4 5 6 6 5 5 6 6 6 6 6 6 6 6 6 6 6 6 7 7 7 7 7 7 7 8 8 8 8 9 9 9 9 10 10 10 11 11 11
6 6 6 6 6 7 7 6 6 7 8 8 7 7 8 8 8 9 7 5 3 2 2 2 2 2 3 3 3 3 3 4 5 4 4 4 4 5 5 4 4 5 4 4 5 5 4 5 6 6 5 6 5 6 6 6 7 6 6 6 6 7 7 7 7 7 6 6 6 6 7 7 7 8 8 9 9 9 10 11 12 12 13 14 14
6 6 6 6 6 7 7 7 7 7 8 8 8 8 9 9 9 8 6 5 3 2 2 3 3 3 3 4 4 5 4 4 5 5 5 5 5 5 5 5 5 4 4 4 5 5 3 3 4 4 5 7 6 6 7 7 7 7 7 7 7 7 7 6 6 5 5 5 6 6 7 7 8 9 9 10 10 11 13 14 15 16 17 17 17
6 7 7 6 6 6 6 7 7 7 7 8 9 9 9 9 9 7 5 4 3 3 3 3 2 2 3 4 5 6 6 6 6 6 6 5 5 5 5 5 5 4 3 4 4 3 3 2 4 5 6 7 6 6 7 7 6 6 6 6 6 5 5 5 5 5 5 6 7 8 9 10 10 11 12 13 14 15 16 17 18 19 19 20 20
6 6 7 6 6 6 7 6 7 8 8 7 9 9 8 8 8 7 6 3 2 3 2 2 3 3 3 4 4 6 7 7 7 6 5 6 5 5 5 5 4 4 3 3 3 2 2 2 4 5 6 6 6 6 6 5 5 5 5 5 5 5 5 6 6 7 7 9 10 11 12 13 13 14 15 16 17 17 18 19 19 19 20 20 20
5 5 5 5 6 6 7 7 7 7 7 7 8 8 8 8 8 7 6 4 3 3 2 2 3 3 4 3 4 5 6 5 5 5 4 5 5 5 5 4 4 3 3 3 3 3 2 2 3 5 6 6 7 6 6 6 6 6 7 7 8 8 8 9 10 10 11 12 13 14 14 15 15 16 17 17 17 18 18 19 19 20 20 21 21
6 5 5 4 5 6 7 7 7 7 7 7 8 7 7 7 7 7 6 4 4 4 2 2 2 3 4 3 3 3 4 3 4 4 4 4 4 4 5 4 4 4 3 3 3 2 2 2 3 4 5 6 7 7 7 7 8 9 9 10 10 11 11 12 12 12 13 13 14 15 15 16 16 16 17 17 18 18 19 20 21 22 22 22 21
6 5 5 5 4 5 6 6 7 7 7 8 8 7 7 7 7 7 6 5 5 4 3 2 1 2 2 2 2 2 3 3 3 3 4 3 3 3 4 4 4 4 3 3 3 2 2 2 2 2 4 6 7 7 8 9 10 10 11 11 12 12 13 13 14 13 13 14 15 15 15 15 16 16 16 17 19 20 21 22 23 23 21 20 19
6 6 5 5 5 5 5 6 6 7 7 8 8 8 8 8 8 7 6 5 5 4 4 2 1 1 1 2 1 1 2 3 2 2 2 3 3 4 4 5 5 5 4 4 3 3 3 2 2 2 3 5 7 7 8 9 10 11 11 12 13 13 14 15 15 14 14 14 14 14 14 14 15 15 16 18 20 21 22 23 23 21 19 18 19
7 6 5 4 4 4 5 5 6 7 7 8 8 9 8 8 8 7 6 5 5 4 4 2 1 1 1 1 1 0 1 1 1 1 1 2 3 4 4 4 4 4 4 4 3 3 3 2 3 3 3 5 6 7 7 9 10 10 11 12 13 13 14 14 14 14 13 14 13 14 14 15 15 15 17 19 21 22 22 22 20 18 19 21 22
8 7 6 5 5 4 4 5 5 6 7 8 8 9 9 8 8 8 7 6 6 5 4 3 2 1 1 1 1 1 0 0 0 1 2 1 1 2 4 4 4 4 3 3 4 3 3 3 3 3 3 5 7 7 7 9 9 10 11 11 11 12 12 13 13 13 14 14 14 15 15 15 16 16 18 19 20 21 20 18 17 19 22 23 23
8 8 7 6 6 5 5 5 5 5 6 6 7 8 8 8 9 9 8 7 7 7 6 5 3 2 2 3 2 2 2 1 1 1 2 2 1 1 3 2 2 3 2 2 3 3 3 3 3 3 4 5 6 7 8 9 10 11 11 12 12 12 13 13 14 14 15 15 16 16 17 17 17 18 19 20 20 19 18 17 19 22 23 24 23
9 8 8 8 7 7 6 5 5 4 5 5 6 7 7 8 9 9 9 8 8 8 8 6 4 3 3 3 4 3 3 2 2 1 1 2 1 1 1 2 2 2 2 2 3 2 2 2 2 3 5 6 7 9 10 9 12 13 13 13 14 15 16 15 15 15 16 16 17 18 18 18 18 18 19 20 20 19 18 19 21 23 24 24 24
10 9 8 8 7 7 7 6 5 5 5 5 6 7 7 8 8 8 8 9 9 9 9 7 5 4 4 4 4 4 4 4 3 2 2 2 2 1 0 1 1 2 2 2 3 2 1 1 1 3 5 7 8 10 10 8 11 15 15 14 15 16 17 16 15 16 17 18 19 19 19 19 18 18 20 20 20 19 19 21 23 24 24 24 24
10 10 9 9 8 7 7 6 6 6 6 5 5 6 7 7 8 8 8 8 9 9 9 8 7 5 5 5 4 4 4 4 4 3 3 3 3 2 1 1 2 2 2 2 3 3 2 1 2 5 6 7 9 11 11 8 11 15 15 13 14 16 17 16 16 17 18 19 20 20 19 19 18 19 20 21 20 19 20 21 23 23 23 23 24
11 11 10 10 9 8 8 7 7 7 6 6 5 5 6 6 7 8 8 8 9 9 10 9 8 7 6 5 4 4 4 4 4 4 4 3 3 2 1 1 1 2 3 2 3 3 1 1 1 5 7 9 10 12 13 10 12 16 15 12 12 16 17 17 18 18 19 20 20 20 19 18 19 19 21 21 20 20 21 22 23 23 23 23 25
11 11 11 10 10 9 9 8 7 8 7 7 6 6 6 6 7 7 8 8 9 9 10 10 10 8 7 7 6 5 4 5 5 4 4 4 3 3 2 1 0 1 2 2 2 2 1 1 3 6 8 9 10 11 12 11 12 16 14 11 12 16 18 17 18 19 20 20 20 20 19 19 19 20 21 21 20 20 21 22 23 23 23 23 25
12 12 12 11 11 10 9 9 8 8 8 8 8 8 7 6 7 7 8 8 8 9 9 10 10 9 9 8 8 7 6 6 5 5 6 5 4 3 3 2 1 0 0 1 1 1 0 0 3 7 9 9 9 10 10 11 14 15 13 11 13 16 18 18 18 19 20 20 20 19 19 19 19 20 21 21 21 21 22 22 23 23 23 23 25
14 14 14 12 12 11 11 10 10 9 9 9 9 9 8 8 8 8 8 9 8 8 9 9 10 10 10 10 9 9 8 7 5 5 7 6 5 4 4 3 3 1 1 1 1 2 1 1 2 6 9 8 7 8 8 11 15 15 14 13 14 17 19 18 18 19 20 20 20 19 19 20 20 20 21 22 22 22 22 22 23 23 23 24 25
17 16 15 14 13 13 12 12 11 11 10 10 10 10 9 9 9 9 9 9 9 8 8 8 9 10 11 11 11 10 9 8 7 7 8 7 6 5 5 6 5 3 3 2 2 3 2 3 4 5 7 8 7 6 7 10 14 15 15 15 16 18 20 20 20 19 20 21 20 20 20 21 21 21 21 22 22 22 23 23 22 23 23 24 25
18 18 17 17 16 14 13 13 12 12 11 11 11 11 10 10 10 10 10 10 9 9 9 8 9 10 10 10 11 12 12 11 9 9 9 8 8 7 7 7 6 6 5 3 4 4 3 4 5 5 6 7 7 8 9 9 13 16 15 16 17 17 17 19 22 20 19 21 21 20 20 21 21 21 21 22 22 23 23 23 23 24 24 25 25
19 19 18 18 18 17 15 14 13 13 13 13 13 12 12 11 11 10 11 11 10 9 10 9 9 10 10 10 11 12 13 13 11 10 9 9 9 8 8 8 7 7 8 6 5 6 5 4 5 6 7 7 7 10 11 8 11 15 15 16 17 14 12 15 20 21 19 20 20 20 20 20 21 21 21 21 22 23 24 24 24 24 25 25 26
19 19 19 19 20 19 18 17 16 16 15 14 14 14 13 12 12 11 11 11 10 11 11 10 10 10 10 10 10 11 12 13 13 12 10 10 10 10 9 9 7 7 9 8 7 6 6 6 6 6 7 8 8 10 11 11 12 14 15 15 12 11 12 13 15 19 20 18 19 20 19 19 20 20 20 21 22 23 24 24 24 25 25 26 27
20 20 20 20 20 21 20 20 19 18 17 16 15 15 15 14 13 12 12 12 11 11 12 12 11 11 11 11 10 10 11 12 12 12 12 11 11 11 11 10 9 9 9 10 9 8 8 8 8 7 7 9 10 10 12 12 14 14 14 14 12 12 15 13 10 17 20 19 18 18 18 18 19 20 20 20 21 22 24 24 25 25 26 26 27
22 22 21 21 21 21 21 22 22 21 20 19 17 17 17 15 14 13 13 13 13 12 13 13 13 13 12 12 12 12 12 12 12 11 12 13 13 13 13 13 13 12 12 12 11 11 11 11 11 10 10 11 11 11 12 12 14 15 14 15 14 14 16 13 9 15 20 19 17 17 17 17 18 19 20 20 21 22 23 24 25 26 26 26 27
23 23 23 22 22 22 22 23 23 23 23 22 20 19 18 17 16 15 14 14 14 13 14 14 14 14 14 14 13 13 13 13 12 11 12 13 14 14 14 14 14 14 14 13 12 12 13 13 13 14 14 13 12 11 12 12 13 15 15 16 16 16 17 14 9 13 20 21 19 18 17 16 17 19 20 20 20 21 22 24 25 25 26 26 27
25 24 24 24 24 23 23 23 24 24 25 25 23 21 20 19 18 16 15 15 14 14 14 14 15 15 15 15 15 14 15 15 14 13 13 13 13 13 14 14 14 15 14 14 14 14 14 15 15 15 14 13 13 13 13 14 14 14 14 14 13 14 15 14 12 12 15 17 20 21 19 17 17 17 19 20 20 20 21 23 24 25 25 26 27
26 25 25 26 26 25 24 24 24 25 25 26 26 24 22 21 20 18 17 16 16 15 15 15 15 16 16 16 16 16 17 17 16 15 15 14 13 13 13 14 14 15 14 14 14 14 15 15 15 14 12 12 13 14 14 15 16 15 14 11 10 11 13 15 16 14 12 14 17 18 19 20 19 17 18 19 19 20 21 21 23 24 25 26 26
26 26 26 25 26 27 26 26 26 26 27 28 28 27 25 24 22 21 20 18 17 17 16 15 15 16 17 17 17 17 18 18 18 17 16 16 15 14 14 14 14 15 15 14 15 15 15 15 15 14 14 15 16 15 14 14 14 12 11 11 11 13 13 14 15 15 15 16 16 14 17 20 20 20 21 20 20 20 21 22 23 25 25 25 25
27 27 27 26 26 27 28 28 28 28 29 30 30 30 29 27 26 24 23 21 20 19 19 18 17 17 17 18 18 18 19 20 19 18 18 18 18 17 16 17 17 17 17 17 17 18 18 17 17 16 15 15 15 14 12 11 11 11 11 12 13 14 13 14 15 16 16 16 15 14 14 16 19 21 22 22 22 22 22 23 24 25 25 25 24
29 28 28 28 28 28 29 31 31 31 31 32 33 32 31 30 29 27 26 25 23 22 22 21 20 19 18 18 18 20 21 21 20 19 20 20 20 19 19 20 20 19 20 20 20 20 20 19 18 16 15 14 13 12 12 12 12 12 12 13 14 14 14 14 15 16 16 17 16 17 17 17 20 21 20 19 21 22 23 22 22 23 24 24 24
31 31 30 31 31 30 30 31 32 33 34 35 35 34 33 32 31 30 29 28 26 26 25 25 24 22 20 19 19 20 22 23 22 21 21 22 22 22 22 22 22 22 22 22 22 22 21 20 19 17 15 15 15 15 14 13 12 12 12 14 16 17 16 16 15 15 17 17 17 19 21 21 22 22 19 17 18 19 21 20 20 22 24 24 24
33 33 32 32 33 32 32 32 33 34 36 37 37 36 35 34 34 33 32 30 30 29 28 28 27 25 24 22 20 20 21 23 23 23 23 23 23 23 23 23 24 24 24 24 24 24 23 22 21 19 18 17 17 17 16 15 15 15 15 17 19 19 18 18 17 16 18 19 18 21 23 23 24 24 21 20 19 20 21 20 20 22 23 23 23
33 34 34 33 33 34 34 34 34 35 36 37 38 38 37 36 35 35 34 33 32 31 30 30 29 29 28 26 25 23 21 22 25 25 24 24 24 23 24 25 25 26 26 26 26 25 25 25 25 24 23 22 22 21 20 20 21 21 21 21 21 21 20 20 20 19 19 20 21 23 26 23 22 22 19 18 21 23 22 20 20 21 22 23 23
33 33 33 34 34 34 34 36 36 36 36 37 38 38 38 38 37 36 36 35 35 34 34 33 32 32 31 30 29 28 25 25 27 27 26 25 26 25 26 26 27 27 27 27 27 27 27 28 28 28 27 26 25 24 24 24 24 24 24 23 22 21 21 21 23 23 23 24 23 25 27 22 17 18 17 15 18 24 24 21 20 21 22 22 23
32 33 32 32 34 34 34 35 36 37 37 37 38 37 37 37 37 37 37 37 37 38 37 37 36 35 34 33 32 31 30 29 29 29 27 26 27 27 28 28 29 29 29 29 29 29 29 29 30 29 28 27 27 26 26 26 26 25 24 24 23 23 23 24 26 26 25 24 24 24 26 22 16 16 16 13 14 20 25 24 21 20 22 22 22
29 31 32 32 32 34 35 35 36 37 37 37 37 36 36 35 34 36 37 38 39 39 40 40 39 38 37 36 35 34 33 32 31 30 29 28 28 29 29 30 30 30 31 31 31 30 30 30 30 30 29 28 29 29 28 27 27 26 25 25 25 24 23 24 25 24 20 18 21 23 24 22 16 14 14 13 13 16 22 25 22 19 20 22 21
30 30 31 32 32 33 34 35 36 37 37 37 36 35 34 33 32 33 35 37 39 40 41 41 40 40 40 39 38 36 35 34 33 32 30 30 30 31 31 31 32 31 31 30 30 31 31 30 30 31 30 30 30 31 30 29 28 27 26 28 28 23 20 19 21 20 17 16 18 21 24 22 17 15 14 14 16 17 18 22 23 19 19 21 21
31 30 30 30 32 32 33 34 36 36 36 36 37 36 34 33 33 33 34 36 38 40 41 41 41 41 42 41 40 39 37 36 35 33 32 31 32 32 32 32 33 33 33 30 28 29 31 32 32 31 31 32 31 31 31 31 30 29 28 30 29 23 20 20 19 18 19 18 17 19 23 23 18 17 15 13 16 17 14 17 22 20 18 20 20
30 29 29 29 30 30 32 33 33 35 35 34 36 36 35 33 33 33 33 35 36 38 40 41 41 42 43 43 43 41 39 38 36 35 34 33 33 34 33 33 34 35 33 30 28 27 27 30 33 33 32 32 31 32 33 32 31 30 30 31 30 26 24 23 21 19 19 19 17 18 22 20 16 15 14 12 12 12 12 18 24 22 19 20 21
Wind_Direction
122 122 124 125 119 117 118 116 118 121 117 114 111 108 99 90 85 81 81 77 76 83 84 83 85 87 87 83 83 89 96 103 105 102 101 100 89 77 78 76 74 75 75 76 80 81 72 68 65 61 60 53 44 37 34 34 31 28 27 29 29 21 13 6 3 1 359 359 357 349 342 340 342 343 342 344 348 349 354 358 359 1 1 1 359
121 121 119 119 118 119 120 119 120 119 117 118 115 108 99 93 89 84 82 80 80 81 84 89 90 91 91 90 89 86 89 94 95 94 97 100 94 79 75 75 77 76 76 77 79 76 72 74 73 69 62 56 48 39 31 25 22 21 23 26 22 13 4 358 357 358 355 352 348 340 336 339 340 339 339 343 348 352 358 3 5 8 10 10 8
118 117 118 119 120 121 121 120 120 120 120 121 120 116 111 104 101 98 93 88 85 83 84 89 91 92 92 94 95 95 95 91 86 88 92 98 97 88 77 72 73 74 75 75 76 77 77 79 76 72 62 54 49 44 37 26 25 22 20 20 15 6 357 356 358 357 353 349 346 342 342 345 347 350 353 357 0 4 7 10 12 14 16 18 16
121 120 121 122 124 123 123 122 121 122 123 126 128 124 117 110 107 106 98 92 89 88 86 87 91 91 91 93 96 99 97 95 96 99 96 92 91 91 85 76 70 70 73 75 79 83 81 78 74 67 60 50 41 37 33 27 26 19 15 14 10 4 359 360 2 360 358 356 354 354 359 4 12 18 19 19 16 15 13 12 14 14 15 16 14
127 127 126 125 127 126 126 126 124 126 127 129 128 121 116 109 105 101 98 98 95 91 89 92 92 89 89 91 96 99 95 95 98 97 93 86 85 89 87 83 78 73 74 75 75 75 71 66 64 64 59 50 32 21 20 20 19 13 11 14 15 10 7 7 7 6 6 7 8 12 19 26 32 34 32 29 24 19 15 12 12 12 12 10 10
131 133 131 129 129 129 130 132 131 130 129 128 125 121 122 118 109 104 103 103 102 98 95 96 90 88 93 91 93 95 91 94 96 97 98 99 95 89 88 85 82 78 75 74 65 56 52 51 50 50 48 35 20 15 15 15 12 10 12 18 21 17 13 15 15 16 16 17 19 23 30 35 37 36 33 29 24 19 16 11 10 9 7 5 4
132 133 133 133 133 133 134 136 136 134 134 133 128 126 126 121 116 109 106 107 105 102 100 98 90 86 88 88 92 93 93 99 98 96 95 99 95 87 89 83 73 65 55 63 57 44 30 20 19 13 8 3 4 7 9 12 10 11 18 21 23 22 20 23 23 22 22 22 25 28 33 36 35 33 31 27 22 19 15 12 8 4 3 0 358
134 134 135 136 136 140 142 143 141 137 140 138 130 127 125 127 126 117 119 118 110 106 103 96 87 81 78 81 88 90 95 94 88 94 95 94 91 81 77 69 63 50 41 38 30 21 6 358 356 356 0 1 359 5 9 15 21 21 25 26 28 30 29 30 29 27 26 27 30 33 35 36 35 33 30 27 23 19 15 12 7 3 0 355 352
138 136 137 140 140 146 152 151 148 145 147 144 140 138 131 132 131 127 127 121 112 111 103 93 84 78 76 84 89 83 90 96 96 106 100 84 80 74 64 55 53 44 46 45 22 1 357 6 22 27 22 20 17 21 26 29 33 34 34 37 42 40 39 37 35 35 34 35 36 38 38 36 34 31 28 25 20 16 12 8 3 359 354 350 345
140 137 140 145 144 149 153 155 154 153 154 150 151 150 141 137 134 133 133 125 118 117 107 97 76 65 76 84 91 89 86 91 95 95 79 63 51 53 48 40 48 42 42 58 35 8 12 23 41 49 43 39 43 41 42 45 44 49 51 52 54 51 49 47 45 45 43 43 41 39 37 33 29 24 21 16 12 7 2 357 353 348 343 339 335
143 142 145 147 149 154 153 155 159 160 158 150 147 149 149 146 139 139 138 133 129 124 116 93 56 48 78 77 76 90 91 82 75 70 70 64 49 56 54 41 51 53 45 64 66 40 40 47 54 58 49 44 53 55 56 61 60 61 61 60 60 56 56 54 53 52 48 44 40 35 30 24 18 13 8 3 358 354 349 344 340 335 331 327 324
151 150 151 152 155 157 155 160 166 164 155 145 144 151 155 151 148 148 139 128 124 118 110 78 45 41 67 68 66 75 80 77 74 68 71 77 68 76 88 73 70 77 76 81 93 79 50 54 61 56 46 49 57 59 60 62 62 62 62 61 61 59 60 58 55 51 45 41 34 27 19 12 6 1 357 352 348 344 339 334 330 325 322 319 316
155 153 154 156 157 159 160 164 167 163 152 146 152 159 157 154 155 153 141 129 123 119 122 77 54 68 63 61 79 82 76 72 79 87 87 90 86 84 95 95 86 85 85 81 82 83 57 46 56 51 46 54 54 52 59 64 62 62 62 63 63 62 60 57 52 45 39 33 23 15 6 0 354 349 345 340 336 332 327 324 322 320 319 317 315
157 153 151 152 162 166 164 161 159 158 153 153 158 157 155 154 153 153 147 141 137 151 146 94 55 62 72 80 94 91 83 78 87 97 97 96 94 89 91 96 96 92 89 77 67 75 71 44 51 56 58 60 53 49 57 61 61 61 62 60 58 56 52 45 40 34 28 19 8 359 351 344 339 335 330 327 324 322 321 320 321 321 321 321 321
152 147 145 151 164 168 161 158 157 156 154 159 160 156 155 154 151 152 152 150 146 157 154 110 75 53 66 89 103 95 90 94 98 97 97 98 96 94 91 94 99 97 92 85 73 77 85 64 58 67 69 66 62 57 56 55 54 54 53 49 45 39 33 26 19 12 4 355 346 340 336 332 329 326 324 323 322 323 324 325 326 327 327 327 326
139 137 140 153 163 161 160 161 159 157 158 161 157 154 157 156 158 157 147 148 155 151 145 111 90 64 62 80 97 97 93 98 102 97 99 99 93 93 94 96 97 91 89 92 94 86 69 46 56 70 72 68 66 63 59 51 44 40 32 26 21 13 7 359 353 347 342 338 335 333 330 328 326 325 326 327 328 330 332 333 334 334 333 332 329
135 138 141 153 160 160 161 162 160 159 161 164 157 156 163 163 168 166 151 149 153 147 153 124 89 70 75 82 94 90 77 85 98 95 96 96 93 90 90 98 95 83 91 100 93 83 72 51 62 73 73 68 63 56 50 41 29 21 16 11 5 359 353 346 341 336 335 333 331 330 329 328 329 330 332 334 337 339 340 341 340 339 337 334 331
144 144 147 155 160 160 161 164 167 166 169 172 168 167 170 171 177 174 167 170 157 146 154 142 93 71 77 84 89 76 60 68 93 106 104 89 92 97 88 94 98 85 88 99 90 79 82 77 64 65 62 54 46 35 28 22 17 15 11 6 2 358 353 348 341 334 330 329 328 330 331 333 336 339 341 343 345 344 343 342 340 338 336 334 333
155 154 153 158 160 160 163 169 175 178 181 181 179 179 179 182 185 180 179 182 167 156 156 147 87 78 86 96 79 71 87 77 78 121 120 90 88 99 91 96 102 93 87 96 103 99 95 89 68 43 31 27 20 12 7 4 4 2 358 355 353 351 348 345 340 333 328 327 330 333 336 340 343 345 346 345 343 341 339 338 337 337 338 340 343
168 167 160 158 162 164 164 171 182 187 189 189 188 191 190 189 188 185 183 184 180 172 168 166 112 98 117 122 100 90 101 83 74 116 116 108 112 103 92 98 100 90 86 92 99 101 96 87 77 42 10 9 4 360 358 356 354 351 347 345 343 340 339 338 336 332 331 333 337 340 343 346 347 346 343 340 338 336 335 335 337 341 346 351 352
179 176 169 164 168 171 168 172 183 187 189 193 196 199 198 193 192 192 191 192 195 190 180 181 161 129 142 120 125 156 80 54 70 107 106 121 115 110 106 105 100 85 76 84 95 104 94 73 61 50 18 358 351 349 349 348 348 346 343 342 339 335 335 337 338 339 344 347 349 351 351 349 347 342 338 336 335 334 334 337 343 350 354 355 354
188 184 178 174 179 181 178 178 180 184 188 193 198 202 204 201 200 202 203 202 200 200 203 219 233 216 231 248 206 188 240 35 176 189 166 154 125 126 121 114 111 96 79 86 98 99 90 75 57 45 17 348 343 345 345 345 349 350 349 349 346 343 344 349 352 355 359 1 360 357 353 348 343 339 337 337 336 337 340 345 353 357 357 356 356
194 195 188 183 187 186 186 186 186 189 190 192 194 197 203 206 207 209 213 212 207 207 216 230 243 251 255 259 252 241 257 264 251 256 191 176 238 185 110 99 107 105 96 106 112 105 91 84 55 16 352 347 348 347 349 355 2 2 359 2 3 359 1 5 6 4 4 3 360 356 351 346 343 341 341 341 342 345 350 356 360 359 358 358 358
198 201 200 198 195 190 191 195 195 200 198 198 195 191 198 205 207 211 215 216 214 213 219 228 244 254 249 251 253 248 248 251 258 265 225 191 207 233 100 101 125 112 104 128 137 124 102 94 47 348 337 344 348 356 6 5 3 6 4 5 9 7 7 11 9 4 359 357 356 353 351 349 347 347 347 348 351 355 360 3 2 0 360 360 358
201 203 206 209 208 200 200 202 203 208 205 204 200 195 200 203 203 207 212 215 214 213 216 223 236 244 241 241 249 250 244 244 254 255 243 225 207 242 29 119 175 131 110 148 164 157 142 132 335 324 334 347 350 4 21 8 353 3 4 3 7 8 7 8 5 359 354 353 353 352 352 352 353 353 353 355 358 1 4 5 2 1 1 359 356
207 206 206 212 216 213 211 211 213 214 210 208 204 200 201 201 201 204 208 211 212 211 214 222 233 240 245 248 246 245 240 235 245 246 237 234 226 239 291 237 215 161 135 158 173 180 186 170 331 325 335 352 354 1 13 4 351 359 4 2 359 2 4 3 360 357 353 352 351 352 354 355 358 358 358 359 1 4 5 4 2 2 1 358 356
212 210 210 212 216 219 217 217 218 220 220 217 213 209 201 195 199 203 205 209 210 212 215 220 231 238 243 245 239 236 236 232 241 242 226 226 228 225 222 234 216 168 154 154 165 175 175 182 294 330 340 352 355 354 0 359 350 353 1 4 352 353 0 359 356 355 353 352 352 353 355 356 358 359 0 2 2 4 5 3 3 2 360 358 357
214 212 213 215 217 220 220 220 221 221 223 225 225 223 214 200 199 202 205 210 210 214 218 220 224 231 238 239 232 230 237 236 233 232 225 216 206 206 191 152 179 175 152 159 175 163 129 209 281 319 333 348 350 348 353 351 344 347 358 1 347 347 353 354 354 354 351 351 352 353 354 356 358 359 1 3 2 4 4 3 3 1 359 359 359
217 214 215 218 219 220 220 220 222 221 222 226 230 232 228 217 208 206 207 213 213 212 217 222 222 223 231 237 236 231 238 243 231 223 227 213 192 202 206 199 222 223 157 206 192 177 102 269 298 312 321 340 348 346 345 336 335 343 350 350 343 342 345 348 351 352 350 350 352 352 353 354 356 358 0 2 2 3 4 4 2 359 357 359 1
221 218 217 218 220 221 221 220 220 219 219 224 229 234 235 230 223 217 212 213 216 214 215 220 224 225 227 231 235 235 238 246 239 231 235 223 205 215 227 240 253 258 270 291 256 235 291 337 315 311 319 333 345 340 332 323 328 337 338 339 338 334 336 342 347 350 350 350 351 350 351 354 355 356 358 0 1 2 3 4 1 358 357 360 1
225 223 219 219 222 222 222 222 221 219 219 220 225 230 231 233 231 227 223 217 213 215 217 215 219 230 232 229 231 231 230 235 233 232 237 230 219 224 235 253 264 260 266 292 275 260 297 312 306 318 320 325 330 321 317 318 321 326 328 328 330 332 334 337 343 349 348 348 349 347 348 351 353 354 356 358 0 0 1 3 1 358 358 360 1
226 227 224 223 225 224 222 223 222 223 224 221 224 229 229 232 232 227 229 229 219 216 219 216 215 227 234 233 233 231 228 230 231 231 238 236 228 227 236 252 268 271 272 286 283 283 297 294 305 324 316 316 319 309 313 319 316 321 325 322 326 334 336 331 333 342 346 345 346 344 343 347 350 351 353 355 358 359 360 1 0 358 357 359 1
224 228 228 227 229 228 224 221 221 223 226 224 225 229 230 230 231 226 227 232 228 221 222 221 220 225 232 234 234 231 228 231 233 232 238 242 240 238 240 248 261 268 274 284 284 288 299 300 310 319 309 311 311 304 311 315 309 314 318 320 327 335 335 326 322 329 342 343 340 340 340 341 345 347 349 353 356 357 358 359 359 358 357 358 360
222 226 228 229 231 230 226 224 223 223 226 226 225 229 231 228 228 228 229 233 231 228 228 225 223 225 227 232 235 232 229 232 234 232 232 236 238 239 242 246 248 255 270 283 286 288 295 300 307 314 313 313 311 304 306 307 303 307 310 316 324 322 324 330 316 316 332 340 336 337 337 336 341 343 345 350 353 355 355 357 358 356 356 357 358
223 225 226 228 231 231 228 227 228 226 227 227 226 229 231 229 228 227 229 233 234 232 233 231 229 228 225 227 230 230 231 232 235 234 231 232 233 233 235 239 242 247 261 275 283 287 289 292 299 306 304 304 306 304 304 305 304 307 308 312 316 310 315 331 316 303 321 336 333 334 334 333 338 341 343 346 349 352 353 355 356 355 354 356 357
225 226 225 226 230 231 229 229 230 229 228 228 227 230 232 231 231 231 232 235 237 236 237 235 233 233 230 229 226 225 229 233 235 235 233 231 232 235 240 245 252 254 256 264 274 283 287 291 296 300 300 303 306 303 303 305 303 305 305 304 309 308 310 327 322 296 310 327 330 330 333 332 336 340 342 343 344 347 351 354 355 354 352 353 355
225 228 228 226 228 230 229 229 231 229 228 227 226 229 233 234 235 236 237 240 240 239 240 238 236 236 235 234 231 227 229 232 235 235 235 236 236 237 242 247 253 257 257 261 269 277 284 289 293 298 304 306 306 302 303 305 303 303 303 302 305 305 305 317 322 303 312 325 329 330 331 331 335 340 340 340 340 343 348 353 354 352 351 352 354
225 228 230 230 229 230 229 230 231 231 228 227 228 228 230 233 237 238 238 241 243 242 243 242 240 241 241 239 236 233 231 231 232 231 233 238 238 237 240 242 246 251 255 261 267 273 279 285 290 296 301 301 301 303 305 304 302 299 297 298 301 304 304 308 314 316 318 321 325 330 330 329 334 338 339 338 338 339 344 351 352 350 350 352 353
228 227 230 233 233 232 231 231 232 233 230 229 230 230 228 230 234 236 234 238 243 245 245 244 243 242 244 244 242 239 237 236 234 232 232 236 238 238 239 240 242 246 250 257 265 270 275 282 286 289 290 288 292 299 304 306 305 301 295 292 290 296 302 305 310 317 315 312 321 327 327 326 328 333 337 337 335 336 339 344 348 349 351 352 352
232 229 228 232 235 235 233 231 231 233 233 231 231 231 230 229 232 235 234 235 238 243 245 246 244 242 241 243 244 242 242 242 239 236 235 235 236 237 239 239 239 242 246 251 258 265 270 275 278 279 280 283 289 296 301 302 302 298 290 285 285 292 299 302 307 311 311 316 323 323 321 323 324 328 333 335 334 334 334 337 344 349 350 351 350
234 232 230 230 233 237 237 234 232 232 234 234 233 232 232 230 230 234 236 237 238 241 245 246 245 243 241 240 241 241 243 245 243 240 238 238 237 237 238 240 240 244 248 252 257 264 269 272 273 275 278 282 288 293 292 287 287 287 285 284 288 293 296 298 301 304 306 312 317 317 317 317 317 322 329 332 333 333 333 337 342 345 347 348 348
236 234 233 232 231 234 238 239 236 233 234 236 236 234 233 232 232 234 237 240 241 242 246 248 247 245 243 241 240 242 246 248 244 241 240 240 240 239 240 243 244 245 249 253 257 262 267 269 270 270 271 272 275 279 279 279 281 282 284 285 287 289 291 294 298 300 302 306 309 312 315 314 315 320 326 329 330 330 330 333 336 339 343 345 346
239 237 235 234 233 232 235 239 240 237 235 236 237 236 234 233 233 236 239 242 244 245 247 249 249 248 245 243 241 244 249 250 245 241 240 240 241 242 243 245 247 248 249 252 256 259 262 264 264 264 264 264 267 271 275 278 278 276 274 279 284 286 288 291 293 296 300 302 304 309 314 316 315 318 321 321 321 320 321 326 331 334 339 343 345
241 240 237 235 234 233 233 236 239 240 239 238 238 238 236 234 234 236 240 244 246 247 248 248 249 250 248 247 243 241 247 252 250 244 241 241 241 242 244 245 247 249 250 251 253 256 258 261 261 261 261 262 266 270 273 275 276 275 276 279 283 285 285 286 287 289 294 297 301 307 312 314 313 315 318 318 317 317 317 322 327 329 335 340 343
245 243 240 237 236 234 234 235 237 239 240 240 240 239 238 237 235 236 239 243 246 248 249 249 249 249 250 250 247 242 241 247 252 250 245 243 242 242 244 245 246 248 250 251 253 254 256 258 260 261 262 265 268 271 272 275 280 283 284 284 284 284 284 284 285 286 288 291 297 303 307 310 309 308 311 312 312 314 316 319 323 326 331 337 340
248 246 242 240 239 236 235 235 236 237 239 242 242 240 238 238 237 237 239 241 244 246 248 249 249 249 250 251 250 248 243 242 248 251 249 247 246 244 244 245 247 249 250 251 253 254 254 255 258 261 264 267 269 272 274 277 281 284 284 284 284 284 283 282 282 284 285 289 294 299 303 307 303 296 299 301 301 308 314 318 322 325 328 333 337
247 249 246 243 241 239 236 235 236 237 238 240 242 242 240 239 238 239 240 241 243 245 246 248 248 249 250 250 250 250 248 245 246 248 249 248 248 248 247 247 248 250 252 252 252 254 255 256 259 261 265 267 268 271 274 277 280 282 282 282 283 282 281 281 283 287 291 294 297 298 300 304 299 291 296 296 291 301 311 316 322 324 324 329 334
240 245 247 245 242 241 239 237 237 238 239 239 241 242 242 241 239 240 240 240 242 243 245 246 248 248 249 249 249 249 249 248 247 248 248 247 246 248 249 250 251 252 253 255 255 255 256 258 260 261 262 264 267 270 272 274 276 278 278 279 279 278 280 282 287 292 293 291 293 295 296 299 296 286 288 287 281 291 303 310 318 323 321 325 331
236 236 242 245 244 242 241 239 238 237 238 239 240 240 240 240 239 238 239 239 240 242 243 244 246 247 248 247 247 247 247 248 249 249 249 246 245 245 247 249 251 252 254 256 257 258 257 257 259 261 262 263 265 269 271 272 273 273 272 273 276 275 272 274 279 285 286 282 284 288 291 294 294 288 285 283 285 292 296 301 313 321 318 321 328
241 235 235 241 244 244 243 243 241 239 238 239 240 239 238 238 237 237 238 239 240 240 242 242 243 245 247 247 247 247 246 247 249 250 249 247 245 244 245 247 250 252 253 254 257 261 262 261 260 260 262 265 266 268 271 272 273 270 267 270 274 270 264 267 270 273 279 281 279 277 282 289 294 291 286 284 292 296 287 289 306 317 315 316 323
244 239 234 235 239 242 243 244 243 242 240 239 240 239 238 237 236 236 237 238 239 240 241 242 243 244 245 247 247 247 246 246 248 249 249 247 246 245 245 245 248 252 254 254 255 257 260 264 266 265 265 266 266 268 270 271 271 268 265 268 270 265 260 263 266 267 273 279 276 270 275 285 290 288 285 285 290 289 278 284 299 310 311 311 317